This is the latest recevied weather packets stored in our database for station/object BV5AB-33. If no packets are shown the sender has not sent any weather packets the latest 10 day(s).
| Time | Temp. | Humidity | Pressure | Rain* | Wind** | Luminosity | Snow |
|---|---|---|---|---|---|---|---|
| 1777813499 | 27.78° C | - | - | 0 mm | - | - | - |
| 1777810800 | 28.33° C | - | - | 0 mm | - | - | - |
| 1777807499 | 28.89° C | - | - | 0 mm | - | - | - |
| 1777803300 | 29.44° C | - | - | 86.36 mm | - | - | - |
| 1777802100 | 30° C | 62% | 980.8 hPa | 0 mm | - | - | - |
| 1777801200 | 30° C | 61% | 980.3 hPa | 0 mm | - | - | - |
| 1777800000 | 30° C | 61% | 980.3 hPa | 0 mm | - | - | - |
| 1777794000 | 31.67° C | 60% | 980.3 hPa | 0 mm | - | - | - |
| 1777791600 | 31.67° C | 60% | 980.7 hPa | 0 mm | - | - | - |
| 1777790400 | 32.22° C | 58% | 980.6 hPa | 0 mm | - | - | - |
| 1777787100 | 32.22° C | 59% | 981.2 hPa | 0 mm | - | - | - |
| 1777786800 | 32.22° C | 60% | 981.3 hPa | 0 mm | - | - | - |
| 1777783501 | 32.22° C | 58% | 981.6 hPa | 0 mm | - | - | - |
| 1777780800 | 31.11° C | 55% | 981.9 hPa | 0 mm | - | - | - |
| 1777779600 | 30.56° C | 58% | 982.2 hPa | 0 mm | - | - | - |
| 1777777501 | 30.56° C | 55% | 981.8 hPa | 0 mm | - | - | - |
| 1777776600 | 30.56° C | 56% | 981.7 hPa | 0 mm | - | - | - |
| 1777774200 | 30.56° C | 58% | 982.4 hPa | 0 mm | - | - | - |
| 1777768801 | 30.56° C | 56% | 982.2 hPa | 0 mm | - | - | - |
| 1777767301 | 29.44° C | 60% | 981.9 hPa | 0 mm | - | - | - |
| 1777767001 | 29.44° C | 61% | 981.8 hPa | 0 mm | - | - | - |
| 1777765801 | 28.89° C | 60% | 981.8 hPa | 0 mm | - | - | - |
| 1777764001 | 28.33° C | 62% | 981.5 hPa | 0 mm | - | - | - |
| 1777763401 | 27.78° C | 63% | 981.2 hPa | 0 mm | - | - | - |
| 1777762801 | 27.22° C | 69% | 981.4 hPa | 0 mm | - | - | - |
* Rain latest hour (hover to see other rain measurements)
** Current wind speed in m/s (hover to see current wind gust speed)